Regional Weather Roundup
Issued by NWS Sterling, VA

Home | Current Version | Previous Version | Graphics & Text | Print | Product List | Glossary On
Versions: 1 2 3 4 5 6 7 8 9 10 11 12 13 14 15 16 17 18 19 20 21 22 23 24 25 26 27 28 29 30 31 32 33 34 35 36 37 38 39 40 41 42 43 44 45 46 47 48 49 50
781
ASUS41 KLWX 280511
RWRLWX

REGIONAL WEATHER ROUNDUP
NATIONAL WEATHER SERVICE BALTIMORE MD/WASHINGTON DC
100 AM EDT FRI APR 28 2017

Note: "FAIR" indicates few or no clouds below 12,000 feet
with no significant weather and/or obstructions to visibility.
 TC=TEMPERATURE CELSIUS

 * =Non NWS site. Station does not report precipitation (e.g. rain,
    snow, etc.), thunder, or fog.

DCZ001-MDZ009-015-VAZ040>042-051-053>054-280600-
WASHINGTON METRO

CITY           SKY/WX    TMP DP  RH WIND       PRES   REMARKS
WASHINGTON NAT LGT RAIN  70  63  78 S10       29.84R
DULLES         CLOUDY    70  59  68 SW8       29.84R
ANDREWS AFB    CLOUDY    68  61  78 SW7       29.84R
FT BELVOIR     CLOUDY    72  60  65 S5        29.85R
QUANTICO       CLOUDY    71  62  73 W5        29.86R
COLLEGE PARK*  CLOUDY    71  60  67 S3        29.84S
LEESBURG*      CLOUDY    72  61  68 SW6       29.85R
MANASSAS*        N/A     67  62  84 SW5       29.86R

$$

MDZ006>007-011-014-280600-
BALTIMORE METRO

CITY           SKY/WX    TMP DP  RH WIND       PRES   REMARKS
BWI AIRPORT    CLOUDY    69  62  78 SW3       29.83R
MD SCIENCE CTR   N/A     70  61  73 MISG      29.84R
MARTIN STATE   MOCLDY    68  64  88 S5        29.85S
ANNAPOLIS      CLOUDY    65  62  90 SE3       29.84R
FORT MEADE*    CLOUDY    64  61  88 CALM      29.86S

$$

MDZ012-015-019>023-280600-
MARYLAND EASTERN SHORE

CITY           SKY/WX    TMP DP  RH WIND       PRES   REMARKS
OCEAN CITY     PTCLDY    65  60  84 SW9       29.91R
SALISBURY      PTCLDY    66  63  90 S9        29.89R
BAY BRIDGE AP* CLOUDY    70  61  73 S6        29.85R
CAMBRIDGE*       N/A     70  61  73 S6        29.87R
EASTON*        PTCLDY    72  61  67 SW8       29.90R

$$

MDZ017>025-280600-
SOUTHERN MARYLAND

CITY           SKY/WX    TMP DP  RH WIND       PRES   REMARKS
PATUXENT RIVER CLOUDY    71  63  75 S7        29.87R
ST INIGOES     PTCLDY    72  60  66 S10       29.87R
LEONARDTOWN*   CLOUDY    72  59  64 SW7       29.89R

$$

MDZ003>005-280600-
NORTH CENTRAL MARYLAND

CITY           SKY/WX    TMP DP  RH WIND       PRES   REMARKS
FREDERICK*     CLOUDY    72  63  73 SW7       29.85S
HAGERSTOWN APT CLEAR     65  62  90 S6        29.83R
WESTMINSTER*   CLEAR     70  61  73 S7        29.85R

$$

MDZ501>502-280600-
WESTERN MARYLAND

CITY           SKY/WX    TMP DP  RH WIND       PRES   REMARKS
OAKLAND*       CLOUDY    55  54  94 W6        29.93R
CUMBERLAND*    CLOUDY    63  63 100 CALM      29.90R VSB 1/2

$$

VAZ025>031-280600-
SHENANDOAH VALLEY

CITY           SKY/WX    TMP DP  RH WIND       PRES   REMARKS
WINCHESTER*    PTCLDY    64  59  82 W8        29.85R
FRONT ROYAL*   MOCLDY    66  59  77 SW8G17    29.85R
LURAY*         CLEAR     64  61  88 S8        29.88R
NEW MARKET*    CLEAR     63  59  87 SW8       29.88R
STAUNTON*      CLEAR     60  58  93 CALM      29.92S
WAYNESBORO*    CLOUDY    62  60  94 W3        29.91R

$$

WVZ021-048>050-054>055-280600-
EASTERN WEST VIRGINIA PANHANDLE

CITY           SKY/WX    TMP DP  RH WIND       PRES   REMARKS
MARTINSBURG    CLEAR     68  59  73 SW9       29.83R
PETERSBURG*    FOG       59  59  99 CALM      29.88R VSB 1/2

$$

VAZ036>039-050-280600-
CENTRAL FOOTHILLS

CITY           SKY/WX    TMP DP  RH WIND       PRES   REMARKS
CHARLOTTESVILL CLEAR     65  63  93 CALM      29.88R FOG
CULPEPER*      CLOUDY    67  63  87 CALM      29.87S
ORANGE*        CLOUDY    63  61  94 SW3       29.88R
GORDONSVILLE*  CLOUDY    64  61  90 CALM      29.88R
WARRENTON*     CLOUDY    68  59  73 SW5       29.86R

$$

VAZ055>057-280600-
NORTH AND CENTRAL PIEDMONT

CITY           SKY/WX    TMP DP  RH WIND       PRES   REMARKS
FREDERICKSBRG* CLOUDY    73  60  65 S8        29.85S
STAFFORD*      CLOUDY    65  64  94 CALM      29.89S

$$

NCZ024-NYZ072-PAZ021-071-VAZ022-071-280600-
OTHER REGIONAL OBSERVATIONS

CITY           SKY/WX    TMP DP  RH WIND       PRES   REMARKS
NEW YORK CITY  CLOUDY    57  56  96 CALM      29.90F FOG
PHILADELPHIA   MOCLDY    68  62  81 S5        29.85R
PITTSBURGH     PTCLDY    57  53  86 W6        29.87R
ROANOKE        CLEAR     61  61 100 CALM      29.94R
RICHMOND       CLOUDY    71  61  70 S8        29.89R
RALEIGH        CLOUDY    73  63  70 SW10      29.93R

$$

ANZ530>537-280600-
MARINE OBSERVATIONS

STATION/POSITION TIME  TEMP    WIND        PRES
                       AIR SEA DIR/SP/G
                 (UTC) (F)     (DEG/KT/KT) (MB)
THOMAS PT LIGHT  0500   65 58  160/ 14/ 14   N/A
BALT KEY BRIDGE  0442   68     190/  3/  4 1010.5R
COVE POINT       0442   73     220/ 16/ 18 1011.9R
LEWISETTA        0442   73 66  240/ 11/ 14 1011.7R
SOLOMONS ISLAND  0448          190/  5/  7   N/A
PINEY POINT      0448          230/ 13/ 15   N/A

$$





USA.gov is the U.S. government's official web portal to all federal, state and local government web resources and services.